FW7027 Weather Reports


time (UTC)temp
C
wind
direction
speed
KPH
gust
KPH
rain 1hr
cm
rain 24hr
cm
rain mn
cm
humidity
%
barometer
mb
20260504081616 6 351 0.0 0.0 0.00 0.08 0.08 99
20260504081112 6 0 0.0 0.0 0.00 0.08 0.08 99
20260504080609 6 1 0.0 0.0 0.00 0.08 0.08 99
20260504080105 6 351 0.0 0.0 0.00 0.08 0.08 99
20260504050415 7 351 0.0 0.0 0.00 0.08 0.08 99
20260504045912 7 317 0.0 1.6 0.00 0.08 0.08 99
20260504045408 7 12 0.0 0.0 0.00 0.08 0.08 98
20260504044905 7 14 0.0 1.6 0.00 0.08 0.08 98
20260504044402 7 9 0.0 1.6 0.13 0.08 0.08 97
20260504043900 7 3 0.0 1.6 0.23 0.08 0.08 96
20260504043356 7 39 1.6 1.6 0.30 0.05 0.05 95
20260504042854 7 19 0.0 1.6 0.18 0.03 0.03 92
20260504042350 7 280 1.6 4.8 0.00 0.00 0.00 89
20260504041846 7 332 0.0 0.0 0.00 0.00 0.00 85
20260504041343 7 315 0.0 1.6 0.00 0.00 0.00 85
20260504040839 7 355 0.0 1.6 0.00 0.00 0.00 84
20260504040337 7 3 0.0 0.0 0.00 0.00 0.00 84
20260504035832 7 352 0.0 1.6 0.00 0.00 0.00 84
20260504035330 7 348 0.0 0.0 0.00 0.00 0.00 84
20260504034827 7 346 0.0 0.0 0.00 0.00 0.00 84
20260504034324 7 7 0.0 0.0 0.00 0.00 0.00 83
20260504033821 7 7 0.0 0.0 0.00 0.00 0.00 83
20260504033319 7 9 0.0 0.0 0.00 0.00 0.00 83
20260504032815 7 2 0.0 0.0 0.00 0.00 0.00 82
20260504032313 7 358 0.0 0.0 0.00 0.00 0.00 82
20260504031810 7 13 0.0 0.0 0.00 0.00 0.00 81
20260504031307 7 10 0.0 0.0 0.00 0.00 0.00 81
20260504030803 7 9 0.0 0.0 0.00 0.00 0.00 81
20260504030300 7 5 0.0 0.0 0.00 0.00 0.00 80
20260504025756 7 7 0.0 0.0 0.00 0.00 0.00 80
20260504025253 7 5 0.0 0.0 0.00 0.00 0.00 80
20260504024750 7 4 0.0 0.0 0.00 0.00 0.00 80
20260504024247 7 5 0.0 0.0 0.00 0.00 0.00 80
20260504023744 7 2 0.0 0.0 0.00 0.00 0.00 81
20260504023240 7 2 0.0 0.0 0.00 0.00 0.00 80
20260504022736 7 4 0.0 0.0 0.00 0.00 0.00 79
20260504022232 7 7 0.0 0.0 0.00 0.00 0.00 79
20260504021730 7 357 0.0 0.0 0.00 0.00 0.00 80
20260504021227 7 3 0.0 0.0 0.00 0.00 0.00 78
20260504020723 7 12 0.0 0.0 0.00 0.00 0.00 77
20260504020220 7 1 0.0 0.0 0.00 0.00 0.00 76
20260504015716 7 13 0.0 0.0 0.00 0.00 0.00 76
20260504015213 7 10 0.0 0.0 0.00 0.00 0.00 75
20260504014708 7 13 0.0 0.0 0.00 0.00 0.00 76
20260504014206 7 3 0.0 0.0 0.00 0.00 0.00 76
20260504013703 7 4 0.0 0.0 0.00 0.00 0.00 75
20260504013200 8 13 0.0 0.0 0.00 0.00 0.00 74
20260504012657 8 20 0.0 0.0 0.00 0.00 0.00 73
20260504012155 8 6 0.0 0.0 0.00 0.00 0.00 74
20260504011652 8 359 0.0 0.0 0.00 0.00 0.00 73
20260504011148 8 0 0.0 0.0 0.00 0.00 0.00 72
20260504010644 8 10 0.0 0.0 0.00 0.00 0.00 70
20260504010140 9 5 0.0 0.0 0.00 0.00 0.00 68
20260504005637 9 8 0.0 0.0 0.00 0.00 0.00 67
20260504005133 9 0 0.0 0.0 0.00 0.00 0.00 67
20260504004632 10 12 0.0 0.0 0.00 0.00 0.00 66
20260504004129 10 3 0.0 0.0 0.00 0.00 0.00 66
20260504003625 10 7 0.0 0.0 0.00 0.00 0.00 64
20260504003122 10 14 0.0 0.0 0.00 0.00 0.00 63
20260504002618 10 352 0.0 0.0 0.00 0.00 0.00 64
20260504002116 11 353 0.0 0.0 0.00 0.00 0.00 63
20260504001614 11 351 0.0 0.0 0.00 0.00 0.00 61
20260504001109 11 352 0.0 0.0 0.00 0.00 0.00 61
20260504000607 11 351 0.0 0.0 0.00 0.00 0.00 59
20260504000104 12 351 0.0 0.0 0.00 0.00 0.00 58
20260503235603 12 351 0.0 0.0 0.00 0.00 0.00 57
20260503235059 13 351 0.0 0.0 0.00 0.00 0.00 57
20260503234557 13 352 0.0 0.0 0.00 0.00 0.00 58
20260503234055 13 295 1.6 1.6 0.00 0.00 0.00 52
20260503233551 13 314 0.0 0.0 0.00 0.00 0.00 51
20260503233047 14 314 0.0 0.0 0.00 0.00 0.00 49
20260503232544 15 325 0.0 1.6 0.00 0.00 0.00 47
20260503232041 15 323 0.0 1.6 0.00 0.00 0.00 49
20260503231539 15 30 0.0 3.2 0.00 0.00 0.00 38
20260503231036 15 357 0.0 0.0 0.00 0.00 0.00 44
20260503230532 15 343 0.0 1.6 0.00 0.00 0.00 48
20260503230030 15 283 1.6 1.6 0.00 0.00 0.00 43
20260503225527 15 347 1.6 1.6 0.00 0.00 0.00 49
20260503225021 16 348 0.0 1.6 0.00 0.00 0.00 39
20260503224519 16 259 0.0 1.6 0.00 0.00 0.00 47
20260503224011 16 322 1.6 1.6 0.00 0.00 0.00 42
20260503223509 16 352 0.0 3.2 0.00 0.00 0.00 36
20260503223005 16 3 0.0 1.6 0.00 0.00 0.00 37
20260503222503 16 23 0.0 0.0 0.00 0.00 0.00 42
20260503222001 16 6 3.2 9.7 0.00 0.00 0.00 35
20260503221458 16 338 0.0 0.0 0.00 0.00 0.00 37
20260503220950 16 319 1.6 1.6 0.00 0.00 0.00 42
20260503220446 16 342 0.0 3.2 0.00 0.00 0.00 38
20260503215943 16 315 4.8 8.0 0.00 0.00 0.00 45
20260503215439 16 50 1.6 3.2 0.00 0.00 0.00 34
20260503214937 16 325 0.0 3.2 0.00 0.00 0.00 37
20260503214435 17 337 0.0 3.2 0.00 0.00 0.00 35
20260503213932 17 306 1.6 3.2 0.00 0.00 0.00 34
20260503213430 16 7 3.2 4.8 0.00 0.00 0.00 33
20260503212926 17 337 4.8 4.8 0.00 0.00 0.00 34
20260503212424 16 329 3.2 4.8 0.00 0.00 0.00 36
20260503211921 17 329 0.0 8.0 0.00 0.00 0.00 38
20260503211418 17 300 1.6 8.0 0.00 0.00 0.00 34
20260503210913 16 306 1.6 3.2 0.00 0.00 0.00 34
20260503210410 17 17 1.6 4.8 0.00 0.00 0.00 34
20260503205905 17 336 6.4 9.7 0.00 0.00 0.00 33
20260503205403 17 358 0.0 4.8 0.00 0.00 0.00 36
20260503204858 17 319 1.6 3.2 0.00 0.00 0.00 36
20260503204356 16 305 0.0 4.8 0.00 0.00 0.00 40
20260503203853 17 323 0.0 4.8 0.00 0.00 0.00 37
20260503203350 16 36 0.0 1.6 0.00 0.00 0.00 36
20260503202847 17 318 1.6 3.2 0.00 0.00 0.00 40
20260503202345 16 321 3.2 3.2 0.00 0.00 0.00 36
20260503201843 17 308 3.2 4.8 0.00 0.00 0.00 35
20260503201340 17 305 3.2 3.2 0.00 0.00 0.00 33
20260503200838 16 325 3.2 4.8 0.00 0.00 0.00 36
20260503200333 17 314 1.6 3.2 0.00 0.00 0.00 35
20260503195831 16 279 3.2 3.2 0.00 0.00 0.00 35
20260503195327 16 313 1.6 3.2 0.00 0.00 0.00 36
20260503194825 16 43 6.4 9.7 0.00 0.00 0.00 35
20260503194320 15 342 3.2 8.0 0.00 0.00 0.00 39
20260503193816 16 24 3.2 9.7 0.00 0.00 0.00 34
20260503193313 15 52 4.8 8.0 0.00 0.00 0.00 36
20260503192809 16 321 1.6 4.8 0.00 0.00 0.00 41
20260503192305 15 321 1.6 3.2 0.00 0.00 0.00 35
20260503191801 15 341 6.4 8.0 0.00 0.00 0.00 39
20260503191258 15 315 1.6 4.8 0.00 0.00 0.00 39
20260503190754 16 190 1.6 3.2 0.00 0.00 0.00 38
20260503190251 15 334 3.2 11.3 0.00 0.00 0.00 42
20260503185749 15 273 1.6 3.2 0.00 0.00 0.00 37
20260503185244 15 299 4.8 9.7 0.00 0.00 0.00 38
20260503184739 15 337 3.2 8.0 0.00 0.00 0.00 36
20260503184235 16 71 4.8 8.0 0.00 0.00 0.00 37
20260503183732 15 19 1.6 3.2 0.00 0.00 0.00 37
20260503183229 15 337 1.6 4.8 0.00 0.00 0.00 37
20260503182727 15 338 4.8 4.8 0.00 0.00 0.00 38
20260503182226 15 356 9.7 9.7 0.00 0.00 0.00 40
20260503181722 15 24 1.6 8.0 0.00 0.00 0.00 38
20260503181219 15 318 1.6 8.0 0.00 0.00 0.00 40
20260503180715 15 42 4.8 8.0 0.00 0.00 0.00 36
20260503180214 14 213 1.6 8.0 0.00 0.00 0.00 35
20260503175710 14 68 4.8 4.8 0.00 0.00 0.00 38
20260503175208 15 359 6.4 8.0 0.00 0.00 0.00 40
20260503174703 15 24 1.6 9.7 0.00 0.00 0.00 41
20260503174201 15 346 3.2 4.8 0.00 0.00 0.00 39
20260503173656 14 329 0.0 3.2 0.00 0.00 0.00 40
20260503173153 14 0 4.8 8.0 0.00 0.00 0.00 40
20260503172650 14 6 1.6 3.2 0.00 0.00 0.00 42
20260503172147 13 38 6.4 8.0 0.00 0.00 0.00 44
20260503171643 15 49 3.2 4.8 0.00 0.00 0.00 41
20260503171141 15 254 0.0 3.2 0.00 0.00 0.00 39
20260503170638 13 254 3.2 3.2 0.00 0.00 0.00 38
20260503170135 14 77 1.6 3.2 0.00 0.00 0.00 41
20260503150526 12 207 3.2 3.2 0.00 0.00 0.00 49
20260503131418 8 58 1.6 3.2 0.00 0.00 0.00 72
20260503130915 7 33 0.0 3.2 0.00 0.00 0.00 76
20260503130413 8 17 1.6 3.2 0.00 0.00 0.00 76
20260503110812 -1 4 0.0 0.0 0.00 0.00 0.00 99
20260503110309 -1 4 0.0 0.0 0.00 0.00 0.00 99
20260503100235 -1 358 0.0 0.0 0.00 0.00 0.00 99